Time,TemperatureF,DewpointF,PressureIn,WindDirection,WindDirectionDegrees,WindSpeedMPH,WindSpeedGustMPH,Humidity,HourlyPrecipIn,Conditions,Clouds,dailyrainin,SoftwareType,DateUTC
2013-02-09 00:00:00,67.8,67.2,31.15,NW,315,0.0,0.0,98,0.00,CLR,,0.00,WeatherDisplay:10.37,2013-02-09 05:00:00,
2013-02-09 00:01:00,67.8,67.2,31.15,NW,315,0.0,0.0,98,0.00,CLR,,0.00,WeatherDisplay:10.37,2013-02-09 05:01:00,
2013-02-09 00:06:00,67.6,67.0,31.15,NW,315,0.0,0.0,98,0.00,CLR,,0.00,WeatherDisplay:10.37,2013-02-09 05:06:00,
2013-02-09 00:11:00,67.5,66.9,31.17,NW,315,0.0,0.0,98,0.00,CLR,,0.00,WeatherDisplay:10.37,2013-02-09 05:11:00,
2013-02-09 00:16:00,67.5,66.9,31.17,NW,315,0.0,0.0,98,0.00,CLR,,0.00,WeatherDisplay:10.37,2013-02-09 05:16:00,
2013-02-09 00:21:00,67.5,66.9,31.09,NW,315,0.0,0.0,98,0.00,CLR,,0.00,WeatherDisplay:10.37,2013-02-09 05:21:00,
2013-02-09 00:26:00,67.5,66.9,31.09,NW,315,0.0,0.0,98,0.00,CLR,,0.00,WeatherDisplay:10.37,2013-02-09 05:26:00,
2013-02-09 00:31:00,67.3,66.7,30.82,NW,315,0.0,0.0,98,0.00,CLR,,0.00,WeatherDisplay:10.37,2013-02-09 05:31:00,
2013-02-09 00:36:00,67.1,66.5,30.82,NW,315,0.0,0.0,98,0.00,CLR,,0.00,WeatherDisplay:10.37,2013-02-09 05:36:00,
2013-02-09 00:41:00,66.9,66.3,30.82,NW,315,0.0,0.0,98,0.00,CLR,,0.00,WeatherDisplay:10.37,2013-02-09 05:41:00,
2013-02-09 00:46:00,66.9,66.3,30.66,NW,315,0.0,0.0,98,0.00,CLR,,0.00,WeatherDisplay:10.37,2013-02-09 05:46:00,
2013-02-09 00:51:00,66.7,66.1,30.66,NW,315,0.0,0.0,98,0.00,CLR,,0.00,WeatherDisplay:10.37,2013-02-09 05:51:00,
2013-02-09 00:56:00,66.7,66.1,30.59,NW,315,0.0,0.0,98,0.00,CLR,,0.00,WeatherDisplay:10.37,2013-02-09 05:56:00,
2013-02-09 01:01:00,66.7,66.1,30.59,NW,315,0.0,0.0,98,0.00,CLR,,0.00,WeatherDisplay:10.37,2013-02-09 06:01:00,
2013-02-09 01:06:00,66.7,66.1,30.59,NW,315,0.0,0.0,98,0.00,CLR,,0.00,WeatherDisplay:10.37,2013-02-09 06:06:00,
2013-02-09 01:11:00,66.9,66.3,30.53,NW,315,0.0,0.0,98,0.00,CLR,,0.00,WeatherDisplay:10.37,2013-02-09 06:11:00,
2013-02-09 01:16:00,66.7,66.1,30.53,NW,315,0.0,0.0,98,0.00,CLR,,0.00,WeatherDisplay:10.37,2013-02-09 06:16:00,
2013-02-09 01:21:00,66.7,66.1,30.46,NW,315,0.0,0.0,98,0.00,CLR,,0.00,WeatherDisplay:10.37,2013-02-09 06:21:00,
2013-02-09 01:26:00,66.9,66.3,30.46,NW,315,0.0,0.0,98,0.00,CLR,,0.00,WeatherDisplay:10.37,2013-02-09 06:26:00,
2013-02-09 01:31:00,66.7,66.1,30.43,NW,315,0.0,0.0,98,0.00,CLR,,0.00,WeatherDisplay:10.37,2013-02-09 06:31:00,
2013-02-09 01:36:00,66.6,66.0,30.43,NW,315,0.0,0.0,98,0.00,CLR,,0.00,WeatherDisplay:10.37,2013-02-09 06:36:00,
2013-02-09 01:41:00,66.6,66.0,30.43,NW,315,0.0,0.0,98,0.00,CLR,,0.00,WeatherDisplay:10.37,2013-02-09 06:41:00,
2013-02-09 01:46:00,66.6,66.0,30.42,NW,315,0.0,0.0,98,0.00,CLR,,0.00,WeatherDisplay:10.37,2013-02-09 06:46:00,
2013-02-09 01:51:00,66.4,65.8,30.42,NW,315,0.0,0.0,98,0.00,CLR,,0.00,WeatherDisplay:10.37,2013-02-09 06:51:00,
2013-02-09 01:56:00,66.4,65.8,30.41,NW,315,0.0,0.0,98,0.00,CLR,,0.00,WeatherDisplay:10.37,2013-02-09 06:56:00,
2013-02-09 02:01:00,66.4,65.8,30.41,NW,315,0.0,0.0,98,0.00,CLR,,0.00,WeatherDisplay:10.37,2013-02-09 07:01:00,
2013-02-09 02:06:00,66.4,65.8,30.41,NW,315,0.0,0.0,98,0.00,CLR,,0.00,WeatherDisplay:10.37,2013-02-09 07:06:00,
2013-02-09 02:11:00,66.2,65.6,30.54,NW,315,0.0,0.0,98,0.00,CLR,,0.00,WeatherDisplay:10.37,2013-02-09 07:11:00,
2013-02-09 02:16:00,66.2,65.6,30.54,NW,315,0.0,0.0,98,0.00,CLR,,0.00,WeatherDisplay:10.37,2013-02-09 07:16:00,
2013-02-09 02:21:00,66.6,66.0,30.80,NW,315,0.0,0.0,98,0.00,CLR,,0.00,WeatherDisplay:10.37,2013-02-09 07:21:00,
2013-02-09 02:26:00,66.6,66.0,30.80,NW,315,0.0,0.0,98,0.00,CLR,,0.00,WeatherDisplay:10.37,2013-02-09 07:26:00,
2013-02-09 02:31:00,66.7,66.1,30.95,NW,315,0.0,0.0,98,0.00,CLR,,0.00,WeatherDisplay:10.37,2013-02-09 07:31:00,
2013-02-09 02:36:00,66.7,66.1,30.95,NW,315,0.0,0.0,98,0.00,CLR,,0.00,WeatherDisplay:10.37,2013-02-09 07:36:00,
2013-02-09 02:41:00,66.7,66.1,30.95,NW,315,0.0,0.0,98,0.00,CLR,,0.00,WeatherDisplay:10.37,2013-02-09 07:41:00,
2013-02-09 02:46:00,66.7,66.1,31.03,NW,315,0.0,0.0,98,0.00,CLR,,0.00,WeatherDisplay:10.37,2013-02-09 07:46:00,
2013-02-09 02:51:00,66.6,66.0,31.03,NW,315,0.0,0.0,98,0.00,CLR,,0.00,WeatherDisplay:10.37,2013-02-09 07:51:00,
2013-02-09 02:56:00,66.6,66.0,31.10,NW,315,0.0,0.0,98,0.00,CLR,,0.00,WeatherDisplay:10.37,2013-02-09 07:56:00,
2013-02-09 03:01:00,66.7,66.1,31.10,NW,315,0.0,0.0,98,0.00,CLR,,0.00,WeatherDisplay:10.37,2013-02-09 08:01:00,
2013-02-09 03:06:00,66.7,66.1,31.10,NW,315,0.0,0.0,98,0.00,CLR,,0.00,WeatherDisplay:10.37,2013-02-09 08:06:00,
2013-02-09 03:11:00,66.7,66.1,31.15,NW,315,0.0,0.0,98,0.00,CLR,,0.00,WeatherDisplay:10.37,2013-02-09 08:11:00,
2013-02-09 03:16:00,66.7,66.1,31.15,NW,315,0.0,0.0,98,0.00,CLR,,0.00,WeatherDisplay:10.37,2013-02-09 08:16:00,
2013-02-09 03:21:00,66.7,66.1,30.94,NW,315,0.0,0.0,98,0.00,CLR,,0.00,WeatherDisplay:10.37,2013-02-09 08:21:00,
2013-02-09 03:26:00,66.7,66.1,30.94,NW,315,0.0,0.0,98,0.00,CLR,,0.00,WeatherDisplay:10.37,2013-02-09 08:26:00,
2013-02-09 03:31:00,66.6,66.0,30.74,NW,315,0.0,0.0,98,0.00,CLR,,0.00,WeatherDisplay:10.37,2013-02-09 08:31:00,
2013-02-09 03:36:00,66.6,66.0,30.74,NW,315,0.0,0.0,98,0.00,CLR,,0.00,WeatherDisplay:10.37,2013-02-09 08:36:00,
2013-02-09 03:41:00,66.6,66.0,30.74,NW,315,0.0,0.0,98,0.00,CLR,,0.00,WeatherDisplay:10.37,2013-02-09 08:41:00,
2013-02-09 03:46:00,66.9,66.3,30.59,NW,315,0.0,0.0,98,0.00,CLR,,0.00,WeatherDisplay:10.37,2013-02-09 08:46:00,
2013-02-09 03:51:00,67.1,66.5,30.59,NW,315,0.0,0.0,98,0.00,CLR,,0.00,WeatherDisplay:10.37,2013-02-09 08:51:00,
2013-02-09 03:56:00,67.5,66.9,30.51,NW,315,0.0,0.0,98,0.00,CLR,,0.00,WeatherDisplay:10.37,2013-02-09 08:56:00,
2013-02-09 04:01:00,67.5,66.9,30.51,NW,315,0.0,0.0,98,0.00,CLR,,0.00,WeatherDisplay:10.37,2013-02-09 09:01:00,
2013-02-09 04:06:00,67.5,66.9,30.51,NW,315,0.0,0.0,98,0.00,CLR,,0.00,WeatherDisplay:10.37,2013-02-09 09:06:00,
2013-02-09 04:11:00,67.5,66.9,30.51,NW,315,0.0,0.0,98,0.00,CLR,,0.00,WeatherDisplay:10.37,2013-02-09 09:11:00,
2013-02-09 04:16:00,67.5,66.9,30.51,NW,315,0.0,0.0,98,0.00,CLR,,0.00,WeatherDisplay:10.37,2013-02-09 09:16:00,
2013-02-09 04:21:00,67.8,67.2,30.51,NW,315,0.0,0.0,98,0.00,CLR,,0.00,WeatherDisplay:10.37,2013-02-09 09:21:00,
2013-02-09 04:26:00,67.8,67.2,30.51,NW,315,0.0,0.0,98,0.00,CLR,,0.00,WeatherDisplay:10.37,2013-02-09 09:26:00,
2013-02-09 04:31:00,67.8,67.2,30.48,NW,315,0.0,0.0,98,0.00,CLR,,0.00,WeatherDisplay:10.37,2013-02-09 09:31:00,
2013-02-09 04:36:00,67.8,67.2,30.48,NW,315,0.0,0.0,98,0.00,CLR,,0.00,WeatherDisplay:10.37,2013-02-09 09:36:00,
2013-02-09 04:41:00,68.0,67.4,30.48,NW,315,0.0,0.0,98,0.00,CLR,,0.00,WeatherDisplay:10.37,2013-02-09 09:41:00,
2013-02-09 04:46:00,68.2,67.6,30.43,NW,315,0.0,0.0,98,0.00,CLR,,0.00,WeatherDisplay:10.37,2013-02-09 09:46:00,
2013-02-09 04:51:00,68.2,67.6,30.43,NW,315,0.0,0.0,98,0.00,CLR,,0.00,WeatherDisplay:10.37,2013-02-09 09:51:00,
2013-02-09 04:56:00,68.2,67.6,30.43,NW,315,0.0,0.0,98,0.00,CLR,,0.00,WeatherDisplay:10.37,2013-02-09 09:56:00,
2013-02-09 05:01:00,68.4,67.8,30.43,NW,315,0.0,0.0,98,0.00,CLR,,0.00,WeatherDisplay:10.37,2013-02-09 10:01:00,
2013-02-09 05:06:00,68.2,67.6,30.45,NW,315,0.0,0.0,98,0.00,CLR,,0.00,WeatherDisplay:10.37,2013-02-09 10:06:00,
2013-02-09 05:11:00,68.2,67.6,30.45,NW,315,0.0,0.0,98,0.00,CLR,,0.00,WeatherDisplay:10.37,2013-02-09 10:11:00,
2013-02-09 05:16:00,68.2,67.6,30.45,NW,315,0.0,0.0,98,0.00,CLR,,0.00,WeatherDisplay:10.37,2013-02-09 10:16:00,
2013-02-09 05:21:00,68.2,67.6,30.41,NW,315,0.0,0.0,98,0.00,CLR,,0.00,WeatherDisplay:10.37,2013-02-09 10:21:00,
2013-02-09 05:26:00,68.2,67.6,30.41,NW,315,0.0,0.0,98,0.00,CLR,,0.00,WeatherDisplay:10.37,2013-02-09 10:26:00,
2013-02-09 05:31:00,68.0,67.4,30.38,NW,315,0.0,0.0,98,0.00,CLR,,0.00,WeatherDisplay:10.37,2013-02-09 10:31:00,
2013-02-09 05:36:00,68.0,67.4,30.38,NW,315,0.0,0.0,98,0.00,CLR,,0.00,WeatherDisplay:10.37,2013-02-09 10:36:00,
2013-02-09 05:41:00,67.8,67.2,30.38,NW,315,0.0,0.0,98,0.00,CLR,,0.00,WeatherDisplay:10.37,2013-02-09 10:41:00,
2013-02-09 05:46:00,67.6,67.0,30.69,NW,315,0.0,0.0,98,0.00,CLR,,0.00,WeatherDisplay:10.37,2013-02-09 10:46:00,
2013-02-09 05:51:00,67.5,66.9,30.69,NW,315,0.0,0.0,98,0.00,CLR,,0.00,WeatherDisplay:10.37,2013-02-09 10:51:00,
2013-02-09 05:56:00,67.1,66.5,30.92,NW,315,0.0,0.0,98,0.00,CLR,,0.00,WeatherDisplay:10.37,2013-02-09 10:56:00,
2013-02-09 06:01:00,67.1,66.5,30.92,NW,315,0.0,0.0,98,0.00,CLR,,0.00,WeatherDisplay:10.37,2013-02-09 11:01:00,
2013-02-09 06:06:00,66.9,66.3,31.04,NW,315,0.0,0.0,98,0.00,CLR,,0.00,WeatherDisplay:10.37,2013-02-09 11:06:00,
2013-02-09 06:11:00,66.7,66.1,31.04,NW,315,0.0,0.0,98,0.00,CLR,,0.00,WeatherDisplay:10.37,2013-02-09 11:11:00,
2013-02-09 06:16:00,66.7,66.1,31.04,NW,315,0.0,0.0,98,0.00,CLR,,0.00,WeatherDisplay:10.37,2013-02-09 11:16:00,
2013-02-09 06:21:00,66.6,66.0,31.12,NW,315,0.0,0.0,98,0.00,CLR,,0.00,WeatherDisplay:10.37,2013-02-09 11:21:00,
2013-02-09 06:26:00,66.4,65.8,31.12,NW,315,0.0,0.0,98,0.00,CLR,,0.00,WeatherDisplay:10.37,2013-02-09 11:26:00,
2013-02-09 06:31:00,66.2,65.6,31.17,NW,315,0.0,0.0,98,0.00,CLR,,0.00,WeatherDisplay:10.37,2013-02-09 11:31:00,
2013-02-09 06:36:00,66.2,65.6,31.17,NW,315,0.0,0.0,98,0.00,CLR,,0.00,WeatherDisplay:10.37,2013-02-09 11:36:00,
2013-02-09 06:41:00,66.2,65.6,31.17,NW,315,0.0,0.0,98,0.00,CLR,,0.00,WeatherDisplay:10.37,2013-02-09 11:41:00,
2013-02-09 06:46:00,66.0,65.4,30.96,NW,315,0.0,0.0,98,0.00,CLR,,0.00,WeatherDisplay:10.37,2013-02-09 11:46:00,
2013-02-09 06:51:00,65.8,65.2,30.96,NW,315,0.0,0.0,98,0.00,CLR,,0.00,WeatherDisplay:10.37,2013-02-09 11:51:00,
2013-02-09 06:56:00,65.7,65.1,30.77,NW,315,0.0,0.0,98,0.00,CLR,,0.00,WeatherDisplay:10.37,2013-02-09 11:56:00,
2013-02-09 07:01:00,65.7,65.1,30.77,NW,315,0.0,0.0,98,0.00,CLR,,0.00,WeatherDisplay:10.37,2013-02-09 12:01:00,
2013-02-09 07:06:00,65.7,65.1,30.68,NW,315,0.0,0.0,98,0.00,CLR,,0.00,WeatherDisplay:10.37,2013-02-09 12:06:00,
2013-02-09 07:11:00,65.7,65.1,30.68,NW,315,0.0,0.0,98,0.00,CLR,,0.00,WeatherDisplay:10.37,2013-02-09 12:11:00,
2013-02-09 07:16:00,65.7,65.1,30.68,NW,315,0.0,0.0,98,0.00,CLR,,0.00,WeatherDisplay:10.37,2013-02-09 12:16:00,
2013-02-09 07:21:00,65.7,65.1,30.61,NW,315,0.0,0.0,98,0.00,CLR,,0.00,WeatherDisplay:10.37,2013-02-09 12:21:00,
2013-02-09 07:26:00,65.8,65.2,30.61,NW,315,0.0,0.0,98,0.00,CLR,,0.00,WeatherDisplay:10.37,2013-02-09 12:26:00,
2013-02-09 07:31:00,65.8,65.2,30.55,NW,315,0.0,0.0,98,0.00,CLR,,0.00,WeatherDisplay:10.37,2013-02-09 12:31:00,
2013-02-09 07:36:00,66.0,65.4,30.55,NW,315,0.0,0.0,98,0.00,CLR,,0.00,WeatherDisplay:10.37,2013-02-09 12:36:00,
2013-02-09 07:41:00,66.0,65.4,30.55,NW,315,0.0,0.0,98,0.00,CLR,,0.00,WeatherDisplay:10.37,2013-02-09 12:41:00,
2013-02-09 07:46:00,66.6,66.0,30.57,NW,315,0.0,0.0,98,0.00,CLR,,0.00,WeatherDisplay:10.37,2013-02-09 12:46:00,
2013-02-09 07:51:00,67.1,66.5,30.57,NW,315,0.0,0.0,98,0.00,CLR,,0.00,WeatherDisplay:10.37,2013-02-09 12:51:00,
2013-02-09 07:56:00,67.8,67.2,30.57,NW,315,0.0,0.0,98,0.00,CLR,,0.00,WeatherDisplay:10.37,2013-02-09 12:56:00,
2013-02-09 08:01:00,68.7,68.1,30.57,NW,315,0.0,0.0,98,0.00,CLR,,0.00,WeatherDisplay:10.37,2013-02-09 13:01:00,
2013-02-09 08:06:00,69.6,69.0,30.58,NW,315,0.0,0.0,98,0.00,CLR,,0.00,WeatherDisplay:10.37,2013-02-09 13:06:00,
2013-02-09 08:11:00,70.7,70.1,30.58,NW,315,0.0,0.0,98,0.00,CLR,,0.00,WeatherDisplay:10.37,2013-02-09 13:11:00,
2013-02-09 08:16:00,70.7,70.1,30.58,NW,315,0.0,0.0,98,0.00,CLR,,0.00,WeatherDisplay:10.37,2013-02-09 13:16:00,
2013-02-09 08:21:00,70.9,70.3,30.58,NW,315,0.0,0.0,98,0.00,CLR,,0.00,WeatherDisplay:10.37,2013-02-09 13:21:00,
2013-02-09 08:26:00,71.6,71.0,30.58,NW,315,0.0,0.0,98,0.00,CLR,,0.00,WeatherDisplay:10.37,2013-02-09 13:26:00,
2013-02-09 08:31:00,72.3,71.7,30.55,NW,315,0.0,0.0,98,0.00,CLR,,0.00,WeatherDisplay:10.37,2013-02-09 13:31:00,
2013-02-09 08:36:00,72.7,72.1,30.55,NW,315,0.0,0.0,98,0.00,CLR,,0.00,WeatherDisplay:10.37,2013-02-09 13:36:00,
2013-02-09 08:41:00,73.2,72.6,30.55,NW,315,0.0,0.0,98,0.00,CLR,,0.00,WeatherDisplay:10.37,2013-02-09 13:41:00,
2013-02-09 08:46:00,73.6,73.0,30.69,NW,315,0.0,0.0,98,0.00,CLR,,0.00,WeatherDisplay:10.37,2013-02-09 13:46:00,
2013-02-09 08:51:00,73.8,73.2,30.69,NW,315,0.0,0.0,98,0.00,CLR,,0.00,WeatherDisplay:10.37,2013-02-09 13:51:00,
2013-02-09 08:56:00,74.1,73.5,30.75,NW,315,0.0,0.0,98,0.00,CLR,,0.00,WeatherDisplay:10.37,2013-02-09 13:56:00,
2013-02-09 09:01:00,74.5,73.9,30.75,NW,315,0.0,0.0,98,0.00,CLR,,0.00,WeatherDisplay:10.37,2013-02-09 14:01:00,
2013-02-09 09:06:00,74.8,74.2,30.75,NW,315,0.0,0.0,98,0.00,CLR,,0.00,WeatherDisplay:10.37,2013-02-09 14:06:00,
2013-02-09 09:11:00,75.2,74.6,30.76,WSW,248,0.0,0.0,98,0.00,CLR,,0.00,WeatherDisplay:10.37,2013-02-09 14:11:00,
2013-02-09 09:16:00,75.6,75.0,30.76,WSW,248,0.0,0.0,98,0.00,CLR,,0.00,WeatherDisplay:10.37,2013-02-09 14:16:00,
2013-02-09 09:21:00,76.5,75.9,30.70,WSW,248,0.0,0.0,98,0.00,CLR,,0.00,WeatherDisplay:10.37,2013-02-09 14:21:00,
2013-02-09 09:26:00,76.6,76.0,30.70,NW,315,0.0,0.0,98,0.00,CLR,,0.00,WeatherDisplay:10.37,2013-02-09 14:26:00,
2013-02-09 09:31:00,77.2,76.6,30.64,SSW,202,0.0,0.0,98,0.00,CLR,,0.00,WeatherDisplay:10.37,2013-02-09 14:31:00,
2013-02-09 09:36:00,77.4,76.8,30.64,SE,135,0.0,0.0,98,0.00,CLR,,0.00,WeatherDisplay:10.37,2013-02-09 14:36:00,
2013-02-09 09:41:00,77.5,76.9,30.64,South,180,0.0,0.0,98,0.00,CLR,,0.00,WeatherDisplay:10.37,2013-02-09 14:41:00,
2013-02-09 09:46:00,77.7,77.1,30.67,South,180,2.3,2.3,98,0.00,CLR,,0.00,WeatherDisplay:10.37,2013-02-09 14:46:00,
2013-02-09 09:51:00,76.5,75.9,30.67,West,270,0.0,0.0,98,0.00,CLR,,0.00,WeatherDisplay:10.37,2013-02-09 14:51:00,
2013-02-09 09:56:00,78.6,78.0,30.72,SW,225,0.0,0.0,98,0.00,CLR,,0.00,WeatherDisplay:10.37,2013-02-09 14:56:00,
2013-02-09 10:01:00,78.6,78.0,30.72,West,270,2.2,2.2,98,0.00,CLR,,0.00,WeatherDisplay:10.37,2013-02-09 15:01:00,
2013-02-09 10:06:00,78.4,77.8,30.72,ESE,112,1.7,1.7,98,0.00,CLR,,0.00,WeatherDisplay:10.37,2013-02-09 15:06:00,
2013-02-09 10:11:00,79.3,78.7,30.72,SSE,158,2.3,0.0,98,0.00,CLR,,0.00,WeatherDisplay:10.37,2013-02-09 15:11:00,
2013-02-09 10:16:00,78.4,77.8,30.72,SE,135,5.8,5.8,98,0.00,CLR,,0.00,WeatherDisplay:10.37,2013-02-09 15:16:00,
2013-02-09 10:21:00,77.0,76.4,30.73,SSE,158,3.5,3.5,98,0.00,CLR,,0.00,WeatherDisplay:10.37,2013-02-09 15:21:00,
2013-02-09 10:26:00,78.6,78.0,30.73,SE,135,1.1,1.1,98,0.00,CLR,,0.00,WeatherDisplay:10.37,2013-02-09 15:26:00,
2013-02-09 10:31:00,79.0,78.4,30.73,SSW,202,5.3,5.3,98,0.00,CLR,,0.00,WeatherDisplay:10.37,2013-02-09 15:31:00,
2013-02-09 10:36:00,79.3,78.7,30.73,West,270,2.3,0.0,98,0.00,CLR,,0.00,WeatherDisplay:10.37,2013-02-09 15:36:00,
2013-02-09 10:41:00,80.1,79.5,30.73,NW,315,0.0,0.0,98,0.00,CLR,,0.00,WeatherDisplay:10.37,2013-02-09 15:41:00,
2013-02-09 10:46:00,77.9,77.3,30.68,WNW,292,2.3,2.3,98,0.00,CLR,,0.00,WeatherDisplay:10.37,2013-02-09 15:46:00,
2013-02-09 10:51:00,79.9,79.3,30.68,SE,135,3.5,3.5,98,0.00,CLR,,0.00,WeatherDisplay:10.37,2013-02-09 15:51:00,
2013-02-09 10:56:00,80.8,80.2,30.62,SE,135,4.6,4.6,98,0.00,CLR,,0.00,WeatherDisplay:10.37,2013-02-09 15:56:00,
2013-02-09 11:01:00,78.8,78.2,30.62,North,360,3.5,3.5,98,0.00,CLR,,0.00,WeatherDisplay:10.37,2013-02-09 16:01:00,
2013-02-09 11:06:00,80.8,80.2,30.58,ESE,112,3.5,3.6,98,0.00,CLR,,0.00,WeatherDisplay:10.37,2013-02-09 16:06:00,
2013-02-09 11:11:00,80.6,80.0,30.58,NW,315,5.8,5.8,98,0.00,CLR,,0.00,WeatherDisplay:10.37,2013-02-09 16:11:00,
2013-02-09 11:16:00,81.1,80.5,30.58,South,180,5.3,5.3,98,0.00,CLR,,0.00,WeatherDisplay:10.37,2013-02-09 16:16:00,
2013-02-09 11:21:00,79.7,79.1,30.54,NW,315,3.5,3.5,98,0.00,CLR,,0.00,WeatherDisplay:10.37,2013-02-09 16:21:00,
2013-02-09 11:26:00,78.1,77.5,30.54,NW,315,2.3,2.3,98,0.00,CLR,,0.00,WeatherDisplay:10.37,2013-02-09 16:26:00,
2013-02-09 11:31:00,79.2,78.6,30.45,NW,315,3.5,3.5,98,0.00,CLR,,0.00,WeatherDisplay:10.37,2013-02-09 16:31:00,
2013-02-09 11:36:00,80.6,80.0,30.45,SSE,158,3.5,3.5,98,0.00,CLR,,0.00,WeatherDisplay:10.37,2013-02-09 16:36:00,
2013-02-09 11:41:00,80.4,79.8,30.45,NE,45,4.6,4.6,98,0.00,CLR,,0.00,WeatherDisplay:10.37,2013-02-09 16:41:00,
2013-02-09 11:46:00,80.6,80.0,30.53,SSE,158,3.7,3.7,98,0.00,CLR,,0.00,WeatherDisplay:10.37,2013-02-09 16:46:00,
2013-02-09 11:51:00,80.1,79.5,30.53,ESE,112,5.3,5.3,98,0.00,CLR,,0.00,WeatherDisplay:10.37,2013-02-09 16:51:00,
2013-02-09 11:56:00,81.9,81.3,30.44,SE,135,5.3,5.3,98,0.00,CLR,,0.00,WeatherDisplay:10.37,2013-02-09 16:56:00,
2013-02-09 12:01:00,81.1,80.5,30.44,SE,135,3.5,3.8,98,0.00,CLR,,0.00,WeatherDisplay:10.37,2013-02-09 17:01:00,
2013-02-09 12:06:00,80.6,80.0,30.49,NW,315,3.5,3.5,98,0.00,CLR,,0.00,WeatherDisplay:10.37,2013-02-09 17:06:00,
2013-02-09 12:11:00,81.9,81.3,30.49,South,180,5.8,5.8,98,0.00,CLR,,0.00,WeatherDisplay:10.37,2013-02-09 17:11:00,
2013-02-09 12:16:00,81.9,81.3,30.49,NNW,338,2.3,2.3,98,0.00,CLR,,0.00,WeatherDisplay:10.37,2013-02-09 17:16:00,
2013-02-09 12:21:00,81.7,81.1,30.49,ESE,112,6.9,6.9,98,0.00,CLR,,0.00,WeatherDisplay:10.37,2013-02-09 17:21:00,
2013-02-09 12:26:00,82.4,81.8,30.49,SW,225,2.7,2.7,98,0.00,CLR,,0.00,WeatherDisplay:10.37,2013-02-09 17:26:00,
2013-02-09 12:31:00,81.7,78.8,30.47,ESE,112,5.8,5.8,91,0.00,CLR,,0.00,WeatherDisplay:10.37,2013-02-09 17:31:00,
2013-02-09 12:36:00,80.1,79.5,30.47,NNW,338,3.5,3.5,98,0.00,CLR,,0.00,WeatherDisplay:10.37,2013-02-09 17:36:00,
2013-02-09 12:41:00,79.9,79.3,30.47,NNW,338,1.1,1.1,98,0.00,CLR,,0.00,WeatherDisplay:10.37,2013-02-09 17:41:00,
2013-02-09 12:46:00,79.9,79.3,30.47,NNW,338,1.1,1.1,98,0.00,CLR,,0.00,WeatherDisplay:10.37,2013-02-09 17:46:00,
2013-02-09 12:52:00,79.9,79.3,30.47,NNW,338,1.1,1.1,98,0.00,CLR,,0.00,WeatherDisplay:10.37,2013-02-09 17:52:00,
2013-02-09 12:57:00,79.9,79.3,30.47,NNW,338,1.1,1.1,98,0.00,CLR,,0.00,WeatherDisplay:10.37,2013-02-09 17:57:00,
2013-02-09 13:02:00,80.4,79.8,30.44,South,180,4.7,4.7,98,0.00,CLR,,0.00,WeatherDisplay:10.37,2013-02-09 18:02:00,
2013-02-09 13:07:00,79.2,78.6,30.46,NNW,338,4.6,4.6,98,0.00,CLR,,0.00,WeatherDisplay:10.37,2013-02-09 18:07:00,
2013-02-09 13:12:00,79.0,78.4,30.46,SE,135,2.2,2.4,98,0.00,CLR,,0.00,WeatherDisplay:10.37,2013-02-09 18:12:00,
2013-02-09 13:17:00,79.3,78.7,30.46,WNW,292,0.0,0.0,98,0.00,CLR,,0.00,WeatherDisplay:10.37,2013-02-09 18:17:00,
2013-02-09 13:22:00,79.9,79.3,30.48,NW,315,2.3,0.0,98,0.00,CLR,,0.00,WeatherDisplay:10.37,2013-02-09 18:22:00,
2013-02-09 13:27:00,80.2,79.6,30.48,NW,315,3.5,3.5,98,0.00,CLR,,0.00,WeatherDisplay:10.37,2013-02-09 18:27:00,
2013-02-09 13:32:00,80.4,76.2,30.44,ESE,112,4.7,4.7,87,0.00,CLR,,0.00,WeatherDisplay:10.37,2013-02-09 18:32:00,
2013-02-09 13:37:00,79.9,76.4,30.44,NNW,338,4.6,4.6,89,0.00,CLR,,0.00,WeatherDisplay:10.37,2013-02-09 18:37:00,
2013-02-09 13:42:00,80.8,74.8,30.44,South,180,4.6,4.6,82,0.00,CLR,,0.00,WeatherDisplay:10.37,2013-02-09 18:42:00,
2013-02-09 13:47:00,82.0,76.3,30.39,SE,135,3.5,3.5,83,0.00,CLR,,0.00,WeatherDisplay:10.37,2013-02-09 18:47:00,
2013-02-09 13:52:00,80.1,77.9,30.39,NW,315,0.0,0.0,93,0.00,CLR,,0.00,WeatherDisplay:10.37,2013-02-09 18:52:00,
2013-02-09 13:57:00,79.3,78.7,30.38,SSW,202,2.3,2.3,98,0.00,CLR,,0.00,WeatherDisplay:10.37,2013-02-09 18:57:00,
2013-02-09 14:02:00,79.2,78.6,30.38,NW,315,1.1,1.1,98,0.00,CLR,,0.00,WeatherDisplay:10.37,2013-02-09 19:02:00,
2013-02-09 14:07:00,78.8,78.2,30.40,NNW,338,1.1,1.1,98,0.00,CLR,,0.00,WeatherDisplay:10.37,2013-02-09 19:07:00,
2013-02-09 14:12:00,78.3,77.7,30.40,NNW,338,2.3,2.3,98,0.00,CLR,,0.00,WeatherDisplay:10.37,2013-02-09 19:12:00,
2013-02-09 14:17:00,78.3,77.7,30.40,NNW,338,2.3,2.3,98,0.00,CLR,,0.00,WeatherDisplay:10.37,2013-02-09 19:17:00,
2013-02-09 14:22:00,78.1,77.2,30.44,NNW,338,2.3,2.3,97,0.00,CLR,,0.00,WeatherDisplay:10.37,2013-02-09 19:22:00,
2013-02-09 14:27:00,78.3,77.7,30.44,SE,135,4.6,4.6,98,0.00,CLR,,0.00,WeatherDisplay:10.37,2013-02-09 19:27:00,
2013-02-09 14:32:00,79.2,75.7,30.43,SSE,158,4.6,4.6,89,0.00,CLR,,0.00,WeatherDisplay:10.37,2013-02-09 19:32:00,
2013-02-09 14:37:00,79.3,77.7,30.43,NNW,338,1.1,1.1,95,0.00,CLR,,0.00,WeatherDisplay:10.37,2013-02-09 19:37:00,
2013-02-09 14:42:00,79.7,75.8,30.43,SSE,158,4.6,4.6,88,0.00,CLR,,0.00,WeatherDisplay:10.37,2013-02-09 19:42:00,
2013-02-09 14:47:00,80.1,79.5,30.40,NE,45,4.6,4.6,98,0.00,CLR,,0.00,WeatherDisplay:10.37,2013-02-09 19:47:00,
2013-02-09 14:52:00,79.0,78.4,30.40,SSW,202,5.8,5.8,98,0.00,CLR,,0.00,WeatherDisplay:10.37,2013-02-09 19:52:00,
2013-02-09 14:57:00,78.3,77.7,30.26,NW,315,2.3,2.3,98,0.00,CLR,,0.00,WeatherDisplay:10.37,2013-02-09 19:57:00,
2013-02-09 15:02:00,78.4,77.8,30.26,SSE,158,6.9,6.9,98,0.00,CLR,,0.00,WeatherDisplay:10.37,2013-02-09 20:02:00,
2013-02-09 15:07:00,78.1,77.5,30.29,SE,135,4.6,4.6,98,0.00,CLR,,0.00,WeatherDisplay:10.37,2013-02-09 20:07:00,
2013-02-09 15:12:00,77.4,76.8,30.29,SSE,158,3.5,3.5,98,0.00,CLR,,0.00,WeatherDisplay:10.37,2013-02-09 20:12:00,
2013-02-09 15:17:00,77.2,76.6,30.29,SSW,202,1.1,1.1,98,0.00,CLR,,0.00,WeatherDisplay:10.37,2013-02-09 20:17:00,
2013-02-09 15:22:00,77.0,76.4,30.33,ESE,112,4.7,4.7,98,0.00,CLR,,0.00,WeatherDisplay:10.37,2013-02-09 20:22:00,
2013-02-09 15:27:00,76.5,75.9,30.33,ESE,112,4.7,4.7,98,0.00,CLR,,0.00,WeatherDisplay:10.37,2013-02-09 20:27:00,
2013-02-09 15:32:00,76.5,75.9,30.42,NE,45,5.8,5.8,98,0.00,CLR,,0.00,WeatherDisplay:10.37,2013-02-09 20:32:00,
2013-02-09 15:37:00,76.1,75.5,30.42,SE,135,4.6,4.6,98,0.00,CLR,,0.00,WeatherDisplay:10.37,2013-02-09 20:37:00,
2013-02-09 15:42:00,75.7,75.1,30.42,South,180,4.6,4.6,98,0.00,CLR,,0.00,WeatherDisplay:10.37,2013-02-09 20:42:00,
2013-02-09 15:47:00,75.6,75.0,30.49,ESE,112,7.3,7.3,98,0.00,CLR,,0.00,WeatherDisplay:10.37,2013-02-09 20:47:00,
2013-02-09 15:52:00,75.4,74.8,30.49,SSE,158,3.7,3.7,98,0.00,CLR,,0.00,WeatherDisplay:10.37,2013-02-09 20:52:00,
2013-02-09 15:57:00,75.2,74.6,30.51,SE,135,2.3,2.3,98,0.00,CLR,,0.00,WeatherDisplay:10.37,2013-02-09 20:57:00,
2013-02-09 16:02:00,75.2,74.6,30.51,SE,135,5.8,5.8,98,0.00,CLR,,0.00,WeatherDisplay:10.37,2013-02-09 21:02:00,
2013-02-09 16:07:00,75.4,74.8,30.54,SSE,158,3.5,3.5,98,0.00,CLR,,0.00,WeatherDisplay:10.37,2013-02-09 21:07:00,
2013-02-09 16:12:00,75.4,74.8,30.54,SSE,158,4.6,4.6,98,0.00,CLR,,0.00,WeatherDisplay:10.37,2013-02-09 21:12:00,
2013-02-09 16:17:00,75.2,74.6,30.54,North,360,4.6,4.6,98,0.00,CLR,,0.00,WeatherDisplay:10.37,2013-02-09 21:17:00,
2013-02-09 16:22:00,75.2,74.6,30.56,South,180,5.8,5.8,98,0.00,CLR,,0.00,WeatherDisplay:10.37,2013-02-09 21:22:00,
2013-02-09 16:27:00,75.0,74.4,30.56,SE,135,4.6,4.6,98,0.00,CLR,,0.00,WeatherDisplay:10.37,2013-02-09 21:27:00,
2013-02-09 16:32:00,74.8,74.2,30.60,SE,135,3.5,3.5,98,0.00,CLR,,0.00,WeatherDisplay:10.37,2013-02-09 21:32:00,
2013-02-09 16:37:00,74.7,74.1,30.60,NW,315,5.8,5.8,98,0.00,CLR,,0.00,WeatherDisplay:10.37,2013-02-09 21:37:00,
2013-02-09 16:42:00,74.8,74.2,30.56,North,360,5.8,5.8,98,0.00,CLR,,0.00,WeatherDisplay:10.37,2013-02-09 21:42:00,
2013-02-09 16:47:00,74.8,74.2,30.56,SSE,158,5.8,5.8,98,0.00,CLR,,0.00,WeatherDisplay:10.37,2013-02-09 21:47:00,
2013-02-09 16:52:00,74.5,73.9,30.56,North,360,4.6,4.6,98,0.00,CLR,,0.00,WeatherDisplay:10.37,2013-02-09 21:52:00,
2013-02-09 16:57:00,74.5,73.9,30.59,SSE,158,5.8,5.8,98,0.00,CLR,,0.00,WeatherDisplay:10.37,2013-02-09 21:57:00,
2013-02-09 17:02:00,74.1,73.5,30.59,North,360,4.6,4.6,98,0.00,CLR,,0.00,WeatherDisplay:10.37,2013-02-09 22:02:00,
2013-02-09 17:07:00,74.1,73.5,30.63,SSE,158,4.6,4.6,98,0.00,CLR,,0.00,WeatherDisplay:10.37,2013-02-09 22:07:00,
2013-02-09 17:12:00,74.1,73.5,30.63,South,180,4.6,4.6,98,0.00,CLR,,0.00,WeatherDisplay:10.37,2013-02-09 22:12:00,
2013-02-09 17:17:00,74.1,73.5,30.63,SSE,158,5.3,5.3,98,0.00,CLR,,0.00,WeatherDisplay:10.37,2013-02-09 22:17:00,
2013-02-09 17:22:00,73.9,73.3,30.63,NNW,338,3.5,3.5,98,0.00,CLR,,0.00,WeatherDisplay:10.37,2013-02-09 22:22:00,
2013-02-09 17:27:00,73.6,73.0,30.63,NNW,338,4.6,4.6,98,0.00,CLR,,0.00,WeatherDisplay:10.37,2013-02-09 22:27:00,
2013-02-09 17:32:00,73.4,72.8,30.63,SSE,158,5.8,5.8,98,0.00,CLR,,0.00,WeatherDisplay:10.37,2013-02-09 22:32:00,
2013-02-09 17:37:00,73.0,72.4,30.63,SSW,202,3.5,3.5,98,0.00,CLR,,0.00,WeatherDisplay:10.37,2013-02-09 22:37:00,
2013-02-09 17:42:00,73.0,72.4,30.65,SE,135,4.6,4.6,98,0.00,CLR,,0.00,WeatherDisplay:10.37,2013-02-09 22:42:00,
2013-02-09 17:47:00,73.0,72.4,30.65,SE,135,7.3,7.3,98,0.00,CLR,,0.00,WeatherDisplay:10.37,2013-02-09 22:47:00,
2013-02-09 17:52:00,72.9,72.3,30.65,SSE,158,3.7,3.7,98,0.00,CLR,,0.00,WeatherDisplay:10.37,2013-02-09 22:52:00,
2013-02-09 17:57:00,72.9,72.3,30.67,ESE,112,4.6,4.6,98,0.00,CLR,,0.00,WeatherDisplay:10.37,2013-02-09 22:57:00,
2013-02-09 18:02:00,72.5,71.9,30.67,SSE,158,5.8,5.8,98,0.00,CLR,,0.00,WeatherDisplay:10.37,2013-02-09 23:02:00,
2013-02-09 18:07:00,72.5,71.9,30.66,NW,315,3.5,3.5,98,0.00,CLR,,0.00,WeatherDisplay:10.37,2013-02-09 23:07:00,
2013-02-09 18:12:00,72.5,71.9,30.66,SSW,202,4.6,4.6,98,0.00,CLR,,0.00,WeatherDisplay:10.37,2013-02-09 23:12:00,
2013-02-09 18:17:00,72.3,71.7,30.66,SE,135,4.6,4.6,98,0.00,CLR,,0.00,WeatherDisplay:10.37,2013-02-09 23:17:00,
2013-02-09 18:22:00,72.3,71.7,30.68,ESE,112,1.1,1.6,98,0.00,CLR,,0.00,WeatherDisplay:10.37,2013-02-09 23:22:00,
2013-02-09 18:27:00,72.3,71.7,30.68,SSE,158,3.5,3.9,98,0.00,CLR,,0.00,WeatherDisplay:10.37,2013-02-09 23:27:00,
2013-02-09 18:32:00,72.3,71.7,30.72,SSE,158,2.3,0.0,98,0.00,CLR,,0.00,WeatherDisplay:10.37,2013-02-09 23:32:00,
2013-02-09 18:37:00,72.1,71.5,30.72,SSE,158,4.6,4.6,98,0.00,CLR,,0.00,WeatherDisplay:10.37,2013-02-09 23:37:00,
2013-02-09 18:42:00,72.1,71.5,30.75,SE,135,2.3,2.3,98,0.00,CLR,,0.00,WeatherDisplay:10.37,2013-02-09 23:42:00,
2013-02-09 18:47:00,72.0,71.4,30.75,SE,135,5.8,5.8,98,0.00,CLR,,0.00,WeatherDisplay:10.37,2013-02-09 23:47:00,
2013-02-09 18:52:00,72.0,71.4,30.75,ESE,112,3.5,3.5,98,0.00,CLR,,0.00,WeatherDisplay:10.37,2013-02-09 23:52:00,
2013-02-09 18:57:00,71.8,71.2,30.75,East,90,5.8,5.8,98,0.00,CLR,,0.00,WeatherDisplay:10.37,2013-02-09 23:57:00,
2013-02-09 19:02:00,71.8,71.2,30.75,East,90,5.8,5.8,98,0.00,CLR,,0.00,WeatherDisplay:10.37,2013-02-10 00:02:00,
2013-02-09 19:07:00,71.8,71.2,30.75,SSE,158,4.6,4.6,98,0.00,CLR,,0.00,WeatherDisplay:10.37,2013-02-10 00:07:00,
2013-02-09 19:12:00,71.8,71.2,30.75,SE,135,4.7,4.7,98,0.00,CLR,,0.00,WeatherDisplay:10.37,2013-02-10 00:12:00,
2013-02-09 19:17:00,71.8,71.2,30.75,SE,135,4.6,4.6,98,0.00,CLR,,0.00,WeatherDisplay:10.37,2013-02-10 00:17:00,
2013-02-09 19:22:00,71.8,71.2,30.77,SE,135,3.5,3.5,98,0.00,CLR,,0.00,WeatherDisplay:10.37,2013-02-10 00:22:00,
2013-02-09 19:27:00,71.8,71.2,30.77,SSE,158,4.6,4.6,98,0.00,CLR,,0.00,WeatherDisplay:10.37,2013-02-10 00:27:00,
2013-02-09 19:32:00,71.8,71.2,30.79,SE,135,3.7,3.7,98,0.00,CLR,,0.00,WeatherDisplay:10.37,2013-02-10 00:32:00,
2013-02-09 19:37:00,71.8,71.2,30.79,ESE,112,2.7,2.7,98,0.00,CLR,,0.00,WeatherDisplay:10.37,2013-02-10 00:37:00,
2013-02-09 19:42:00,72.0,71.4,30.81,SE,135,6.3,6.3,98,0.00,CLR,,0.00,WeatherDisplay:10.37,2013-02-10 00:42:00,
2013-02-09 19:47:00,71.8,71.2,30.81,SSE,158,4.6,4.6,98,0.00,CLR,,0.00,WeatherDisplay:10.37,2013-02-10 00:47:00,
2013-02-09 19:52:00,71.8,71.2,30.81,SSE,158,4.7,4.7,98,0.00,CLR,,0.00,WeatherDisplay:10.37,2013-02-10 00:52:00,
2013-02-09 19:57:00,71.6,71.0,30.80,SSE,158,5.8,5.8,98,0.00,CLR,,0.00,WeatherDisplay:10.37,2013-02-10 00:57:00,
2013-02-09 20:02:00,71.4,70.8,30.80,North,360,4.6,4.6,98,0.00,CLR,,0.00,WeatherDisplay:10.37,2013-02-10 01:02:00,
2013-02-09 20:07:00,71.4,70.8,30.78,SSE,158,4.6,4.6,98,0.00,CLR,,0.00,WeatherDisplay:10.37,2013-02-10 01:07:00,
2013-02-09 20:12:00,71.4,70.8,30.78,ESE,112,3.7,3.7,98,0.00,CLR,,0.00,WeatherDisplay:10.37,2013-02-10 01:12:00,
2013-02-09 20:17:00,71.4,70.8,30.78,South,180,3.5,3.5,98,0.00,CLR,,0.00,WeatherDisplay:10.37,2013-02-10 01:17:00,
2013-02-09 20:22:00,71.4,70.8,30.76,SSE,158,3.5,3.5,98,0.00,CLR,,0.00,WeatherDisplay:10.37,2013-02-10 01:22:00,
2013-02-09 20:27:00,71.2,70.6,30.76,SSE,158,4.6,4.6,98,0.00,CLR,,0.00,WeatherDisplay:10.37,2013-02-10 01:27:00,
2013-02-09 20:32:00,71.1,70.5,30.76,SSE,158,3.7,3.7,98,0.00,CLR,,0.00,WeatherDisplay:10.37,2013-02-10 01:32:00,
2013-02-09 20:37:00,71.1,70.5,30.76,ESE,112,3.5,3.5,98,0.00,CLR,,0.00,WeatherDisplay:10.37,2013-02-10 01:37:00,
2013-02-09 20:42:00,71.1,70.5,30.78,SE,135,2.7,2.7,98,0.00,CLR,,0.00,WeatherDisplay:10.37,2013-02-10 01:42:00,
2013-02-09 20:47:00,70.9,70.3,30.78,SSE,158,4.6,4.6,98,0.00,CLR,,0.00,WeatherDisplay:10.37,2013-02-10 01:47:00,
2013-02-09 20:52:00,70.9,70.3,30.78,SE,135,4.6,4.6,98,0.00,CLR,,0.00,WeatherDisplay:10.37,2013-02-10 01:52:00,
2013-02-09 20:57:00,70.7,70.1,30.82,ESE,112,4.6,4.6,98,0.00,CLR,,0.00,WeatherDisplay:10.37,2013-02-10 01:57:00,
2013-02-09 21:02:00,70.7,70.1,30.82,SSE,158,4.6,4.6,98,0.00,CLR,,0.00,WeatherDisplay:10.37,2013-02-10 02:02:00,
2013-02-09 21:07:00,70.9,70.3,30.85,ESE,112,5.8,5.8,98,0.00,CLR,,0.00,WeatherDisplay:10.37,2013-02-10 02:07:00,
2013-02-09 21:12:00,70.9,70.3,30.85,SE,135,4.7,4.7,98,0.00,CLR,,0.00,WeatherDisplay:10.37,2013-02-10 02:12:00,
2013-02-09 21:17:00,71.1,70.5,30.85,ESE,112,5.8,5.8,98,0.00,CLR,,0.00,WeatherDisplay:10.37,2013-02-10 02:17:00,
2013-02-09 21:22:00,71.1,70.5,30.83,East,90,3.7,3.7,98,0.00,CLR,,0.00,WeatherDisplay:10.37,2013-02-10 02:22:00,
2013-02-09 21:27:00,71.1,70.5,30.83,SSE,158,4.6,4.6,98,0.00,CLR,,0.00,WeatherDisplay:10.37,2013-02-10 02:27:00,
2013-02-09 21:32:00,71.1,70.5,30.85,South,180,2.3,2.3,98,0.00,CLR,,0.00,WeatherDisplay:10.37,2013-02-10 02:32:00,
2013-02-09 21:37:00,71.1,70.5,30.85,ESE,112,5.8,5.8,98,0.00,CLR,,0.00,WeatherDisplay:10.37,2013-02-10 02:37:00,
2013-02-09 21:42:00,71.1,70.5,30.90,SSE,158,5.3,5.3,98,0.00,CLR,,0.00,WeatherDisplay:10.37,2013-02-10 02:42:00,
2013-02-09 21:47:00,71.1,70.5,30.90,SE,135,5.8,5.8,98,0.00,CLR,,0.00,WeatherDisplay:10.37,2013-02-10 02:47:00,
2013-02-09 21:52:00,70.9,70.3,30.90,SE,135,4.7,4.7,98,0.00,CLR,,0.00,WeatherDisplay:10.37,2013-02-10 02:52:00,
2013-02-09 21:57:00,70.9,70.3,30.93,SSE,158,5.8,5.8,98,0.00,CLR,,0.00,WeatherDisplay:10.37,2013-02-10 02:57:00,
2013-02-09 22:02:00,70.9,70.3,30.93,NNW,338,4.6,4.6,98,0.00,CLR,,0.00,WeatherDisplay:10.37,2013-02-10 03:02:00,
2013-02-09 22:07:00,70.9,70.3,30.98,South,180,4.7,4.7,98,0.00,CLR,,0.00,WeatherDisplay:10.37,2013-02-10 03:07:00,
2013-02-09 22:12:00,70.9,70.3,30.98,SE,135,2.7,2.7,98,0.00,CLR,,0.00,WeatherDisplay:10.37,2013-02-10 03:12:00,
2013-02-09 22:17:00,70.5,69.9,31.03,SE,135,3.5,3.5,98,0.00,CLR,,0.00,WeatherDisplay:10.37,2013-02-10 03:17:00,
2013-02-09 22:22:00,70.5,69.9,31.03,ESE,112,5.8,5.8,98,0.00,CLR,,0.00,WeatherDisplay:10.37,2013-02-10 03:22:00,
2013-02-09 22:27:00,70.5,69.9,31.03,SE,135,3.5,3.5,98,0.00,CLR,,0.00,WeatherDisplay:10.37,2013-02-10 03:27:00,
2013-02-09 22:32:00,70.5,69.9,31.06,ESE,112,4.7,4.7,98,0.00,CLR,,0.00,WeatherDisplay:10.37,2013-02-10 03:32:00,
2013-02-09 22:37:00,70.5,69.9,31.06,SSE,158,4.6,4.6,98,0.00,CLR,,0.00,WeatherDisplay:10.37,2013-02-10 03:37:00,
2013-02-09 22:42:00,70.5,69.9,31.08,ESE,112,4.6,4.6,98,0.00,CLR,,0.00,WeatherDisplay:10.37,2013-02-10 03:42:00,
2013-02-09 22:47:00,70.5,69.9,31.08,SE,135,4.6,4.6,98,0.00,CLR,,0.00,WeatherDisplay:10.37,2013-02-10 03:47:00,
2013-02-09 22:52:00,70.5,69.9,31.08,SSE,158,3.7,3.7,98,0.00,CLR,,0.00,WeatherDisplay:10.37,2013-02-10 03:52:00,
2013-02-09 22:57:00,70.5,69.9,31.12,South,180,3.5,3.5,98,0.00,CLR,,0.00,WeatherDisplay:10.37,2013-02-10 03:57:00,
2013-02-09 23:02:00,70.5,69.9,31.12,ESE,112,4.6,4.6,98,0.00,CLR,,0.00,WeatherDisplay:10.37,2013-02-10 04:02:00,
2013-02-09 23:07:00,70.5,69.9,31.15,SSE,158,2.3,0.0,98,0.00,CLR,,0.00,WeatherDisplay:10.37,2013-02-10 04:07:00,
2013-02-09 23:13:00,70.5,69.9,31.15,ESE,112,5.8,5.8,98,0.00,CLR,,0.00,WeatherDisplay:10.37,2013-02-10 04:13:00,
2013-02-09 23:18:00,70.3,69.7,31.15,SE,135,3.5,3.5,98,0.00,CLR,,0.00,WeatherDisplay:10.37,2013-02-10 04:18:00,
2013-02-09 23:23:00,70.3,69.7,31.17,SSE,158,4.6,4.6,98,0.00,CLR,,0.00,WeatherDisplay:10.37,2013-02-10 04:23:00,
2013-02-09 23:28:00,70.3,69.7,31.17,ESE,112,3.7,3.7,98,0.00,CLR,,0.00,WeatherDisplay:10.37,2013-02-10 04:28:00,
2013-02-09 23:33:00,70.3,69.7,31.19,SSE,158,3.5,3.5,98,0.00,CLR,,0.00,WeatherDisplay:10.37,2013-02-10 04:33:00,
2013-02-09 23:38:00,70.2,69.6,31.19,ESE,112,3.7,3.7,98,0.00,CLR,,0.00,WeatherDisplay:10.37,2013-02-10 04:38:00,
2013-02-09 23:43:00,70.2,69.6,31.21,SE,135,2.3,2.3,98,0.00,CLR,,0.00,WeatherDisplay:10.37,2013-02-10 04:43:00,
2013-02-09 23:48:00,70.2,69.6,31.21,ESE,112,3.5,3.5,98,0.00,CLR,,0.00,WeatherDisplay:10.37,2013-02-10 04:48:00,
2013-02-09 23:53:00,70.2,69.6,31.21,ESE,112,1.7,1.7,98,0.00,CLR,,0.00,WeatherDisplay:10.37,2013-02-10 04:53:00,
2013-02-09 23:58:00,70.2,69.6,31.24,ESE,112,4.6,4.6,98,0.00,CLR,,0.00,WeatherDisplay:10.37,2013-02-10 04:58:00,